Miami, FL

11:51 AM EDT on July 21, 2017 (GMT -0400)
Miami International

Weather History for KMIA - February, 2014

Change the Weather History Date:

Thursday, February 20, 2014

  Actual Average Record
Temperature  
Mean Temperature 77 °F 71 °F  
Max Temperature 83 °F 79 °F 87 °F (1988)
Min Temperature 70 °F 63 °F 42 °F (1972)
Degree Days  
Heating Degree Days 0 1  
Month to date heating degree days 4 20  
Since 1 July heating degree days 61 110  
Cooling Degree Days 12 7  
Month to date cooling degree days 176 115  
Year to date cooling degree days 328 266  
Growing Degree Days 26 (Base 50)    
Moisture  
Dew Point 67 °F    
Average Humidity 75    
Maximum Humidity 87    
Minimum Humidity 62    
Precipitation  
Precipitation T in 0.07 in 0.73 in (1959)
Month to date precipitation 0.94 1.60  
Year to date precipitation 2.85 3.22  
Snow  
Snow 0.00 in - - ()
Month to date snowfall 0.0  
Since 1 July snowfall 0.0  
Snow Depth 0.00 in    
Sea Level Pressure  
Sea Level Pressure 30.12 in    
Wind  
Wind Speed 12 mph (ESE)    
Max Wind Speed 20 mph    
Max Gust Speed 24 mph    
Visibility 10 miles    
Events      
T = Trace of Precipitation, MM = Missing Value Source: NWS Daily Summary

Daily Weather History Graph

Daily Weather History Graph

Search for Another Location

Airport or City:

Trip Planner

Search our weather history database for the weather conditions in past years. The results will help you decide how hot, cold, wet, or windy it might be!

Date:

Astronomy

Feb. 20, 2014 Rise Set
Actual Time 6:52 AM EST 6:17 PM EST
Civil Twilight 6:29 AM EST 6:41 PM EST
Nautical Twilight 6:02 AM EST 7:07 PM EST
Astronomical Twilight 5:35 AM EST 7:34 PM EST
Moon 11:32 PM EST (2/20) 10:09 AM EST (2/20)
Length of Visible Light 12h 12m
Length of Day
11h 25m
Waning Gibbous, 71% of the Moon is Illuminated
Feb 20
Waning Gibbous
Feb 22
Last Quarter
Mar 1
New
Mar 8
First Quarter
Mar 16
Full

Hourly Weather History & Observations

Time (EST) Temp. Heat Index Dew Point Humidity Pressure Visibility Wind Dir Wind Speed Gust Speed Precip Events Conditions
12:53 AM 72.0 °F - 64.9 °F 78% 30.13 in 10.0 mi East 6.9 mph - N/A   Partly Cloudy
1:53 AM 71.1 °F - 64.9 °F 81% 30.11 in 10.0 mi ESE 9.2 mph - N/A   Partly Cloudy
2:53 AM 72.0 °F - 63.0 °F 73% 30.09 in 10.0 mi ESE 5.8 mph - N/A   Partly Cloudy
3:53 AM 71.1 °F - 64.0 °F 78% 30.09 in 10.0 mi East 8.1 mph - N/A   Partly Cloudy
4:53 AM 71.1 °F - 64.0 °F 78% 30.09 in 10.0 mi ESE 6.9 mph - N/A   Clear
5:53 AM 72.0 °F - 64.9 °F 78% 30.09 in 10.0 mi ESE 6.9 mph - N/A   Partly Cloudy
6:53 AM 73.0 °F - 66.0 °F 79% 30.12 in 10.0 mi East 8.1 mph 21.9 mph N/A   Scattered Clouds
7:49 AM 73.4 °F - 66.2 °F 78% 30.13 in 10.0 mi East 10.4 mph - N/A   Mostly Cloudy
7:53 AM 75.0 °F - 66.9 °F 76% 30.14 in 10.0 mi East 8.1 mph - N/A   Mostly Cloudy
8:39 AM 77.0 °F - 66.2 °F 69% 30.15 in 10.0 mi East 11.5 mph - N/A   Scattered Clouds
8:53 AM 78.1 °F - 66.9 °F 68% 30.15 in 10.0 mi ESE 15.0 mph - N/A   Scattered Clouds
9:53 AM 79.0 °F - 66.9 °F 66% 30.17 in 10.0 mi ESE 16.1 mph - N/A   Mostly Cloudy
10:24 AM 80.6 °F 83.2 °F 68.0 °F 65% 30.17 in 10.0 mi ESE 15.0 mph - N/A   Mostly Cloudy
10:53 AM 81.0 °F 83.3 °F 66.9 °F 62% 30.18 in 10.0 mi East 15.0 mph - N/A   Mostly Cloudy
11:53 AM 80.1 °F 82.1 °F 66.0 °F 62% 30.16 in 10.0 mi ESE 17.3 mph - N/A   Mostly Cloudy
12:53 PM 80.1 °F 82.3 °F 66.9 °F 64% 30.14 in 10.0 mi ESE 12.7 mph 24.2 mph N/A   Mostly Cloudy
1:53 PM 79.0 °F - 66.0 °F 64% 30.11 in 10.0 mi ESE 15.0 mph - N/A   Mostly Cloudy
2:53 PM 80.1 °F 82.3 °F 66.9 °F 64% 30.10 in 10.0 mi ESE 13.8 mph 20.7 mph N/A   Mostly Cloudy
3:30 PM 80.6 °F 83.2 °F 68.0 °F 65% 30.10 in 10.0 mi East 12.7 mph - N/A   Mostly Cloudy
3:53 PM 80.1 °F 82.7 °F 68.0 °F 67% 30.10 in 10.0 mi ESE 15.0 mph - N/A   Mostly Cloudy
4:53 PM 79.0 °F - 69.1 °F 72% 30.10 in 10.0 mi ESE 15.0 mph - N/A   Mostly Cloudy
5:53 PM 77.0 °F - 69.1 °F 76% 30.11 in 10.0 mi East 15.0 mph - N/A   Mostly Cloudy
6:53 PM 75.9 °F - 69.1 °F 79% 30.11 in 10.0 mi East 15.0 mph - N/A   Scattered Clouds
7:53 PM 75.9 °F - 70.0 °F 82% 30.09 in 10.0 mi East 17.3 mph - N/A   Scattered Clouds
8:53 PM 75.9 °F - 71.1 °F 85% 30.11 in 10.0 mi ESE 12.7 mph - N/A   Mostly Cloudy
9:53 PM 77.0 °F - 71.1 °F 82% 30.10 in 10.0 mi ESE 17.3 mph 21.9 mph N/A   Mostly Cloudy
10:53 PM 77.0 °F - 71.1 °F 82% 30.10 in 10.0 mi ESE 13.8 mph - 0.00 in   Mostly Cloudy
11:46 PM 75.2 °F - 71.6 °F 89% 30.10 in 10.0 mi ESE 13.8 mph - N/A   Mostly Cloudy
11:53 PM 75.9 °F - 71.1 °F 85% 30.10 in 10.0 mi ESE 12.7 mph - N/A   Scattered Clouds